This is the latest recevied weather packets stored in our database for station/object KQ4NAL. If no packets are shown the sender has not sent any weather packets the latest 10 day(s).
| Time | Temp. | Humidity | Pressure | Rain* | Wind** | Luminosity | Snow |
|---|---|---|---|---|---|---|---|
| 1778186101 | 16.11° C | 40% | 1015.1 hPa | 0 mm | - | 590 W/m² | - |
| 1778185797 | 15.56° C | 41% | 1015.2 hPa | 0 mm | - | 606 W/m² | - |
| 1778185493 | 16.11° C | 41% | 1014.9 hPa | 0 mm | - | 644 W/m² | - |
| 1778185189 | 16.11° C | 41% | 1015.2 hPa | 0 mm | - | 666 W/m² | - |
| 1778184884 | 16.11° C | 41% | 1015.1 hPa | 0 mm | - | 629 W/m² | - |
| 1778184581 | 15.56° C | 40% | 1015.3 hPa | 0 mm | - | 622 W/m² | - |
| 1778184277 | 16.67° C | 39% | 1015.2 hPa | 0 mm | - | 618 W/m² | - |
| 1778183973 | 15.56° C | 40% | 1015.3 hPa | 0 mm | - | 617 W/m² | - |
| 1778183671 | 15.56° C | 40% | 1015.1 hPa | 0 mm | - | 662 W/m² | - |
| 1778183368 | 15.56° C | 39% | 1015.3 hPa | 0 mm | - | 674 W/m² | - |
| 1778183064 | 15.56° C | 43% | 1015.2 hPa | 0 mm | - | 684 W/m² | - |
| 1778182760 | 16.11° C | 44% | 1015.3 hPa | 0 mm | - | 674 W/m² | - |
| 1778182458 | 16.67° C | 41% | 1015.3 hPa | 0 mm | - | 678 W/m² | - |
| 1778182154 | 15.56° C | 39% | 1015.3 hPa | 0 mm | - | 706 W/m² | - |
| 1778181850 | 15.56° C | 41% | 1015.5 hPa | 0 mm | - | 710 W/m² | - |
| 1778181548 | 15.56° C | 42% | 1015.4 hPa | 0 mm | - | 710 W/m² | - |
| 1778181243 | 16.11° C | 37% | 1015.6 hPa | 0 mm | - | 703 W/m² | - |
| 1778180940 | 16.11° C | 42% | 1015.6 hPa | 0 mm | - | 686 W/m² | - |
| 1778180638 | 15.56° C | 40% | 1015.6 hPa | 0 mm | - | 695 W/m² | - |
| 1778180337 | 15.56° C | 36% | 1015.3 hPa | 0 mm | - | 717 W/m² | - |
| 1778180034 | 16.11° C | 37% | 1015.6 hPa | 0 mm | - | 705 W/m² | - |
| 1778179730 | 16.11° C | 42% | 1015.5 hPa | 0 mm | - | 684 W/m² | - |
| 1778179428 | 15° C | 39% | 1015.7 hPa | 0 mm | - | 717 W/m² | - |
| 1778179125 | 16.11° C | 40% | 1015.4 hPa | 0 mm | - | 747 W/m² | - |
| 1778178822 | 15.56° C | 38% | 1015.6 hPa | 0 mm | - | 756 W/m² | - |
* Rain latest hour (hover to see other rain measurements)
** Current wind speed in m/s (hover to see current wind gust speed)